San Diego, CA

5:46 PM PST on December 05, 2016 (GMT -0800)
San Diego International-Lindbergh

Weather History for KSAN - March, 2013

Change the Weather History Date:

Monday, March 11, 2013

  Actual Average Record
Temperature  
Mean Temperature 60 °F 59 °F  
Max Temperature 68 °F 65 °F 88 °F (1959)
Min Temperature 51 °F 53 °F 40 °F (1935)
Degree Days  
Heating Degree Days 5 6  
Month to date heating degree days 60 69  
Since 1 July heating degree days 893 927  
Cooling Degree Days 0 0  
Month to date cooling degree days 3 0  
Year to date cooling degree days 4 5  
Growing Degree Days 10 (Base 50)    
Moisture  
Dew Point 44 °F    
Average Humidity 63    
Maximum Humidity 86    
Minimum Humidity 40    
Precipitation  
Precipitation 0.00 in 0.06 in 1.77 in (1995)
Month to date precipitation 1.22 0.78  
Year to date precipitation 3.06 5.03  
Since 1 July precipitation 6.23  
Snow  
Snow 0.00 in - - ()
Month to date snowfall 0.0  
Year to date snowfall 0.0  
Snow Depth 0.00 in    
Sea Level Pressure  
Sea Level Pressure 30.14 in    
Wind  
Wind Speed 4 mph (NW)    
Max Wind Speed 14 mph    
Max Gust Speed 17 mph    
Visibility 10 miles    
Events      
T = Trace of Precipitation, MM = Missing Value Source: NWS Daily Summary

Daily Weather History Graph

Daily Weather History Graph

Search for Another Location

Airport or City:

Trip Planner

Search our weather history database for the weather conditions in past years. The results will help you decide how hot, cold, wet, or windy it might be!

Date:

Astronomy

Mar. 11, 2013 Rise Set
Actual Time 7:03 AM PDT 6:53 PM PDT
Civil Twilight 6:39 AM PDT 7:18 PM PDT
Nautical Twilight 6:10 AM PDT 7:47 PM PDT
Astronomical Twilight 5:41 AM PDT 8:15 PM PDT
Moon 6:41 AM PDT (3/11) 7:07 PM PDT (3/11)
Length of Visible Light 12h 39m
Length of Day
11h 50m
Waning Crescent, 0% of the Moon is Illuminated
Mar 11
Waning Crescent
Mar 11
New
Mar 19
First Quarter
Mar 27
Full
Apr 2
Last Quarter

Hourly Weather History & Observations

Time (PDT) Temp. Dew Point Humidity Pressure Visibility Wind Dir Wind Speed Gust Speed Precip Events Conditions
12:51 AM 55.0 °F 37.9 °F 53% 30.20 in 10.0 mi Calm Calm - N/A   Clear
1:51 AM 54.0 °F 39.0 °F 57% 30.19 in 10.0 mi Calm Calm - N/A   Clear
2:51 AM 53.1 °F 39.0 °F 59% 30.18 in 10.0 mi Calm Calm - N/A   Clear
3:51 AM 52.0 °F 39.0 °F 61% 30.17 in 10.0 mi Calm Calm - N/A   Clear
4:51 AM 51.1 °F 39.0 °F 63% 30.16 in 10.0 mi Calm Calm - N/A   Clear
5:51 AM 51.1 °F 39.0 °F 63% 30.16 in 10.0 mi Calm Calm - N/A   Clear
6:51 AM 51.1 °F 37.9 °F 61% 30.16 in 10.0 mi Calm Calm - N/A   Clear
7:51 AM 52.0 °F 37.9 °F 59% 30.17 in 10.0 mi Calm Calm - N/A   Partly Cloudy
8:51 AM 57.0 °F 37.9 °F 49% 30.19 in 10.0 mi West 3.5 mph - N/A   Partly Cloudy
9:51 AM 60.1 °F 37.9 °F 44% 30.19 in 10.0 mi Calm Calm - N/A   Clear
10:51 AM 64.9 °F 39.9 °F 40% 30.18 in 10.0 mi NW 8.1 mph - N/A   Clear
11:51 AM 64.0 °F 46.9 °F 54% 30.18 in 10.0 mi WSW 4.6 mph - N/A   Clear
12:51 PM 66.9 °F 44.1 °F 44% 30.16 in 10.0 mi West 9.2 mph - N/A   Clear
1:51 PM 66.9 °F 44.1 °F 44% 30.12 in 10.0 mi NW 6.9 mph - N/A   Clear
2:51 PM 66.9 °F 46.0 °F 47% 30.11 in 10.0 mi NW 10.4 mph - N/A   Clear
3:51 PM 64.0 °F 45.0 °F 50% 30.10 in 10.0 mi NW 9.2 mph - N/A   Clear
4:51 PM 62.1 °F 52.0 °F 70% 30.08 in 10.0 mi WNW 11.5 mph - N/A   Partly Cloudy
5:51 PM 60.1 °F 52.0 °F 75% 30.07 in 10.0 mi WNW 10.4 mph - N/A   Partly Cloudy
6:51 PM 59.0 °F 51.1 °F 75% 30.08 in 10.0 mi NW 8.1 mph - N/A   Partly Cloudy
7:51 PM 59.0 °F 50.0 °F 72% 30.08 in 10.0 mi NNW 4.6 mph - N/A   Partly Cloudy
8:51 PM 57.0 °F 51.1 °F 81% 30.10 in 10.0 mi NNW 3.5 mph - N/A   Partly Cloudy
9:51 PM 57.0 °F 50.0 °F 77% 30.11 in 10.0 mi Calm Calm - N/A   Partly Cloudy
10:51 PM 55.9 °F 51.1 °F 84% 30.11 in 8.0 mi North 3.5 mph - N/A   Clear
11:51 PM 55.0 °F 50.0 °F 83% 30.10 in 8.0 mi NNW 4.6 mph - N/A   Partly Cloudy